Date,TemperatureHighF,TemperatureAvgF,TemperatureLowF,DewpointHighF,DewpointAvgF,DewpointLowF,HumidityHigh,HumidityAvg,HumidityLow,PressureMaxIn,PressureMinIn,WindSpeedMaxMPH,WindSpeedAvgMPH,GustSpeedMaxMPH,PrecipitationSumIn
2014-1-1,74,51,36,25,15,5,42,26,12,30.15,29.70,12,3,17,0.00
2014-1-2,75,53,39,17,8,0,28,16,10,30.19,29.74,6,3,8,0.00
2014-1-3,73,50,36,21,14,8,34,24,12,30.09,29.57,5,2,7,0.00
2014-1-4,70,48,36,28,16,0,48,30,15,29.94,29.46,10,3,20,0.00
2014-1-5,70,46,32,15,3,-4,20,17,12,30.16,29.59,14,4,19,0.00
2014-1-6,72,48,34,16,5,-3,20,17,11,30.30,29.75,12,3,17,0.00
2014-1-7,68,47,37,14,5,-1,26,18,12,30.14,29.63,6,2,7,0.00
2014-1-8,70,48,34,19,10,4,33,23,12,30.03,29.55,7,2,9,0.00
2014-1-9,69,45,37,22,11,4,35,26,12,29.96,29.51,7,2,8,0.00
2014-1-10,71,48,34,22,15,10,41,29,13,30.03,29.55,6,2,9,0.00
2014-1-11,75,52,37,27,18,12,44,29,13,30.10,29.63,5,2,9,0.00
2014-1-12,73,53,40,27,16,2,43,25,11,30.13,29.57,10,3,16,0.00
2014-1-13,71,49,34,16,6,-2,22,17,12,30.31,29.89,7,2,10,0.00
2014-1-14,76,52,34,17,9,2,30,19,10,30.35,29.91,15,3,27,0.00
2014-1-15,76,54,40,21,8,0,21,16,10,30.32,29.85,10,2,17,0.00
2014-1-16,76,54,40,17,7,0,19,15,10,30.15,29.76,11,4,17,0.00
2014-1-17,79,55,39,23,8,0,18,15,10,30.21,29.71,8,2,11,0.00
2014-1-18,78,55,38,23,8,0,19,15,10,30.13,29.66,6,2,8,0.00
2014-1-19,79,54,38,24,8,0,19,15,10,30.20,29.72,5,2,8,0.00
2014-1-20,78,54,37,23,10,1,29,17,10,30.17,29.74,10,2,13,0.00
2014-1-21,75,56,44,17,8,2,18,15,10,30.24,29.80,10,3,13,0.00
2014-1-22,75,53,42,21,10,2,27,18,10,30.02,29.48,5,2,6,0.00
2014-1-23,68,50,36,14,8,3,27,18,12,30.10,29.71,16,6,20,0.00
2014-1-24,64,51,43,13,6,2,20,16,13,30.29,30.03,15,7,21,0.00
2014-1-25,77,55,45,17,8,2,19,15,10,30.21,29.72,7,2,10,0.00
2014-1-26,75,53,38,17,8,2,29,17,10,30.06,29.56,7,2,9,0.00
2014-1-27,74,53,41,21,10,2,29,19,11,29.91,29.50,9,2,10,0.00
2014-1-28,75,52,37,17,7,0,25,17,11,30.07,29.62,7,2,11,0.00
2014-1-29,74,52,37,16,7,-1,20,16,11,30.07,29.58,6,2,7,0.00
2014-1-30,64,52,41,21,12,7,29,20,13,29.83,29.44,11,3,17,0.00
2014-1-31,55,48,42,36,25,10,76,45,18,29.68,29.46,16,5,23,0.00
2014-2-1,64,46,34,32,18,4,67,37,14,29.89,29.46,12,4,19,0.00
2014-2-2,63,43,31,20,11,4,42,28,16,30.02,29.68,10,4,14,0.00
2014-2-3,55,40,33,22,15,9,50,36,21,29.87,29.58,11,2,13,0.00
2014-2-4,61,44,34,25,18,6,56,37,17,29.92,29.59,14,3,25,0.00
2014-2-5,61,45,37,26,20,17,52,39,21,29.95,29.63,7,2,9,0.00
2014-2-6,51,41,33,26,22,18,57,47,36,29.98,29.71,9,2,14,0.00
2014-2-7,54,44,37,37,31,26,83,62,39,30.05,29.80,9,2,10,0.13
2014-2-8,71,51,37,37,29,23,77,49,19,30.13,29.70,7,2,10,0.00
2014-2-9,75,55,39,37,28,17,69,40,13,30.09,29.55,9,3,11,0.00
2014-2-10,76,53,40,35,26,19,59,37,13,29.91,29.44,9,3,13,0.00
2014-2-11,75,56,44,28,18,5,40,24,12,29.92,29.52,9,3,11,0.00
2014-2-12,77,56,40,22,14,4,30,20,10,30.08,29.60,8,2,11,0.00
2014-2-13,86,60,43,28,18,11,38,22,10,30.02,29.47,9,2,11,0.00
2014-2-14,83,61,44,27,19,12,37,21,10,30.00,29.51,6,2,9,0.00
2014-2-15,87,63,45,27,17,10,32,18,10,29.92,29.48,8,2,10,0.00
2014-2-16,64,52,46,24,15,9,28,23,16,29.96,29.67,6,2,7,0.00
2014-2-17,84,60,41,24,16,7,29,19,10,30.03,29.45,12,3,17,0.00
2014-2-18,82,61,44,27,16,9,31,18,10,29.86,29.45,7,2,10,0.00
2014-2-19,79,61,44,24,16,7,29,18,11,29.76,29.25,17,5,31,0.00
2014-2-20,71,54,41,16,7,1,18,15,12,30.03,29.62,12,4,18,0.00
2014-2-21,77,56,37,22,8,-1,19,15,10,29.96,29.41,9,3,10,0.00
2014-2-22,80,57,39,24,9,0,19,15,10,29.88,29.36,10,2,14,0.00
2014-2-23,79,58,41,24,10,1,21,15,10,29.89,29.48,9,3,12,0.00
2014-2-24,82,60,41,24,12,2,23,15,10,29.92,29.45,9,2,10,0.00
2014-2-25,77,57,45,22,13,4,28,18,11,29.89,29.45,9,2,13,0.00
2014-2-26,78,60,42,31,21,14,39,24,12,29.88,29.39,10,3,13,0.00
2014-2-27,69,57,45,32,25,16,48,31,15,29.75,29.34,21,6,33,0.00
2014-2-28,62,54,45,45,30,24,69,40,25,29.68,29.40,15,3,24,0.00
2014-3-1,54,49,40,50,44,36,96,84,69,29.73,29.39,15,5,25,1.24
2014-3-2,64,48,39,44,37,30,94,70,33,29.99,29.68,10,2,11,0.08
2014-3-3,75,56,40,42,34,25,80,49,18,29.96,29.55,9,2,10,0.00
2014-3-4,72,56,46,39,32,26,65,44,22,29.84,29.45,9,2,14,0.00
2014-3-5,77,57,42,31,24,14,54,31,13,29.96,29.61,8,3,10,0.00
2014-3-6,73,56,45,29,21,13,40,28,14,29.97,29.53,7,2,12,0.00
2014-3-7,80,60,43,32,20,6,49,25,11,29.77,29.36,15,4,22,0.00
2014-3-8,76,58,46,22,14,6,28,18,11,30.08,29.72,18,7,26,0.00
2014-3-9,79,59,44,24,16,6,33,19,10,30.21,29.70,13,5,18,0.00
2014-3-10,81,59,42,24,14,3,28,17,11,30.03,29.53,9,3,13,0.00
2014-3-11,78,59,42,26,15,6,37,20,10,29.86,29.47,16,5,29,0.00
2014-3-12,78,59,45,23,10,3,19,15,10,29.99,29.57,18,7,27,0.00
2014-3-13,77,57,45,24,17,9,32,21,12,29.88,29.47,9,2,14,0.00
2014-3-14,76,59,48,34,25,17,46,29,13,29.86,29.48,11,3,17,0.00
2014-3-15,82,60,40,29,18,8,50,24,10,30.00,29.52,19,7,29,0.69
2014-3-16,81,63,46,24,12,3,17,14,10,30.13,29.64,11,4,17,0.04
2014-3-17,80,60,44,24,11,3,20,15,10,29.94,29.18,17,4,24,0.00
2014-3-18,76,58,42,20,9,1,18,14,10,29.70,29.34,11,4,21,0.00
2014-3-19,80,58,42,24,10,1,18,15,10,29.93,29.54,10,3,15,0.00
2014-3-20,78,59,40,23,10,0,18,15,10,29.97,29.43,9,3,14,0.00
2014-3-21,80,60,42,24,11,2,18,15,10,29.77,29.32,11,3,21,0.00
2014-3-22,81,61,43,24,12,2,23,15,10,29.77,29.40,10,3,13,0.00
2014-3-23,82,62,46,27,18,8,36,19,11,29.95,29.47,9,2,13,0.00
2014-3-24,89,66,48,27,14,4,19,13,10,29.89,29.42,11,4,18,0.00
2014-3-25,87,66,50,26,14,6,16,13,10,29.77,29.23,15,4,20,0.00
2014-3-26,66,58,51,23,15,8,28,19,14,29.52,29.22,21,8,32,0.00
2014-3-27,71,55,42,29,20,14,48,27,14,29.77,29.40,12,4,18,0.00
2014-3-28,78,58,40,25,17,8,40,22,11,29.95,29.53,10,3,15,0.00
2014-3-29,84,63,44,24,15,6,29,17,10,30.04,29.43,9,3,14,0.00
2014-3-30,76,59,48,22,12,4,26,16,10,29.73,29.27,23,6,31,0.00
2014-3-31,75,59,42,17,10,2,21,15,10,29.82,29.41,19,6,28,0.00
2014-4-1,71,60,50,19,12,6,27,16,12,29.58,29.34,20,10,31,0.00
2014-4-2,63,51,38,31,19,8,70,32,13,29.78,29.35,19,8,25,0.00
2014-4-3,66,51,35,30,21,8,70,37,13,29.88,29.56,11,3,14,0.04
2014-4-4,70,55,40,22,14,7,39,21,12,29.85,29.38,11,3,18,0.00
2014-4-5,70,56,44,19,10,2,28,16,12,29.68,29.36,14,3,19,0.00
2014-4-6,75,60,43,22,16,9,34,19,11,29.82,29.42,13,4,17,0.00
2014-4-7,81,65,46,24,14,4,21,14,10,29.94,29.59,10,3,15,0.00
2014-4-8,87,69,49,26,16,5,16,13,10,30.02,29.53,10,3,15,0.00
2014-4-9,87,69,52,26,16,7,16,13,10,29.92,29.43,11,3,16,0.00
2014-4-10,88,71,52,27,17,7,16,13,9,29.80,29.36,16,4,22,0.00
2014-4-12,71,64,58,16,12,9,14,13,12,29.45,29.24,11,4,15,0.00
2014-4-13,79,65,49,24,13,5,16,13,10,29.66,29.21,23,7,34,0.00
2014-4-14,73,61,49,16,11,5,16,14,11,29.90,29.62,15,7,25,0.00
2014-4-15,80,63,45,24,12,2,17,14,10,29.88,29.32,9,3,11,0.00
2014-4-16,84,67,48,24,14,4,17,13,10,29.62,29.17,13,4,17,0.00
2014-4-17,86,70,53,25,16,7,16,13,10,29.70,29.33,10,4,17,0.00
2014-4-18,77,62,56,36,19,8,42,20,11,29.68,29.50,16,4,25,0.00
2014-4-19,79,65,51,35,26,18,49,26,12,29.74,29.41,16,4,20,0.00
2014-4-20,86,68,52,33,26,20,42,23,11,29.86,29.47,12,3,19,0.00
2014-4-21,89,72,55,32,25,15,37,19,10,29.86,29.40,9,3,14,0.00
2014-4-22,83,70,56,29,20,12,26,15,11,29.64,29.22,17,6,30,0.00
2014-4-23,78,66,54,23,14,8,15,13,10,29.60,29.29,15,5,20,0.00
2014-4-24,82,66,49,24,14,5,16,13,10,29.77,29.38,11,4,20,0.00
2014-4-25,79,66,50,24,14,6,16,13,10,29.66,29.25,21,6,29,0.00
2014-4-26,63,51,42,40,29,15,73,45,16,29.62,29.22,21,7,31,0.12
2014-4-27,70,57,40,34,21,11,62,30,12,29.72,29.35,17,4,22,0.00
2014-4-28,77,62,44,27,18,8,40,21,11,29.81,29.43,19,6,26,0.00
2014-4-29,73,60,48,16,10,4,17,14,11,29.99,29.64,17,8,29,0.00
2014-4-30,73,61,50,16,11,6,16,14,11,29.92,29.57,22,10,34,0.00
2014-5-1,78,65,51,24,13,7,16,13,10,29.93,29.52,24,9,36,0.00
2014-5-2,86,71,52,26,16,7,16,13,10,29.86,29.38,12,3,15,0.00
2014-5-3,91,74,55,27,18,8,15,12,10,29.76,29.31,14,4,19,0.00
2014-5-4,89,73,55,26,17,8,15,12,10,29.72,29.32,17,5,24,0.00
2014-5-5,87,72,57,26,16,8,14,12,10,29.67,29.28,19,6,33,0.00
2014-5-6,74,64,54,16,12,7,15,13,11,29.41,29.15,19,8,29,0.00
2014-5-7,65,56,48,40,18,5,73,27,13,29.69,29.34,14,5,23,0.04
2014-5-8,75,61,46,40,26,12,74,34,12,29.74,29.44,15,4,22,0.04
2014-5-9,80,65,49,26,20,12,37,19,11,29.78,29.38,14,4,21,0.00
2014-5-10,81,68,52,27,19,13,29,17,11,29.64,29.13,17,7,28,0.00
2014-5-11,68,62,54,26,14,8,25,16,12,29.70,29.15,17,9,27,0.00
2014-5-12,77,63,46,23,15,7,24,15,11,29.85,29.44,17,5,27,0.00
2014-5-13,74,62,50,17,13,8,26,15,11,30.01,29.73,20,9,32,0.00
2014-5-14,78,66,53,23,14,7,16,13,10,30.09,29.65,18,7,29,0.00
2014-5-15,90,73,53,27,18,7,16,12,10,30.02,29.46,10,4,14,0.00
2014-5-16,94,77,58,27,19,9,14,11,9,29.80,29.29,11,4,15,0.00
2014-5-17,94,77,60,27,19,11,14,11,9,29.64,29.22,16,4,27,0.00
2014-5-18,89,75,60,27,18,11,14,12,10,29.53,29.20,17,5,24,0.00
2014-5-19,87,74,61,26,18,11,14,12,10,29.50,29.24,17,7,30,0.00
2014-5-20,83,71,58,24,16,9,14,12,10,29.57,29.31,20,7,27,0.00
2014-5-21,81,69,58,24,15,9,14,12,10,29.58,29.33,20,6,29,0.00
2014-5-22,82,68,53,24,15,7,16,13,10,29.67,29.36,18,5,28,0.00
2014-5-23,81,68,58,24,15,9,16,13,10,29.66,29.36,14,4,22,0.00
2014-5-24,78,67,57,44,20,12,57,18,13,29.68,29.39,17,4,24,0.00
2014-5-25,85,70,54,43,30,18,57,28,11,29.70,29.30,10,3,14,0.00
2014-5-26,96,77,60,32,25,19,34,16,9,29.68,29.28,12,3,17,0.00
2014-5-27,99,81,63,30,24,15,24,13,8,29.71,29.27,11,3,13,0.00
2014-5-28,98,80,65,28,21,13,15,11,8,29.59,29.23,14,4,24,0.00
2014-5-29,84,74,67,45,24,13,42,16,11,29.67,29.40,11,3,18,0.00
2014-5-30,95,79,62,36,27,14,34,17,9,29.66,29.24,13,4,19,0.00
2014-5-31,96,81,63,28,22,12,16,12,9,29.57,29.19,17,5,26,0.00
2014-6-1,95,80,63,27,20,11,13,11,9,29.55,29.19,17,5,24,0.00
2014-6-2,99,82,62,28,21,11,14,11,8,29.56,29.18,13,4,22,0.00